TimeGMT,TemperatureF,Dew PointF,Humidity,Sea Level PressureIn,VisibilityMPH,Wind Direction,Wind SpeedMPH,Gust SpeedMPH,PrecipitationIn,Events,Conditions,WindDirDegrees,DateUTC
12:50 AM,39.2,37.4,93,30.24,-9999.0,NNE,2.3,-,N/A,,Unknown,30,2012-11-15 00:50:00
1:50 AM,37.4,35.6,93,30.24,-9999.0,ENE,3.5,-,N/A,,Unknown,60,2012-11-15 01:50:00
2:50 AM,36,35,94,30.24,3,ESE,3.5,,,,,110,2012-11-15 02:50:00
2:50 AM,35.6,35.6,100,30.21,-9999.0,ESE,3.5,-,N/A,,Unknown,110,2012-11-15 02:50:00
3:50 AM,37.4,35.6,93,30.21,-9999.0,ENE,4.6,-,N/A,,Unknown,70,2012-11-15 03:50:00
4:50 AM,35.6,35.6,100,30.21,-9999.0,ENE,5.8,-,N/A,,Unknown,70,2012-11-15 04:50:00
5:50 AM,34,33,95,30.22,3,East,3.5,,,,,90,2012-11-15 05:50:00
5:50 AM,33.8,33.8,100,30.21,-9999.0,East,3.5,-,N/A,,Unknown,90,2012-11-15 05:50:00
6:50 AM,39.2,39.2,100,30.21,3.7,East,6.9,-,N/A,,Unknown,90,2012-11-15 06:50:00
7:50 AM,39.2,37.4,93,30.21,-9999.0,ENE,5.8,-,N/A,,Partly Cloudy,70,2012-11-15 07:50:00
8:50 AM,41,40,94,30.24,3,ENE,6.9,,,,Mostly Cloudy,70,2012-11-15 08:50:00
8:50 AM,41.0,39.2,93,30.21,3.1,ENE,6.9,-,N/A,,Overcast,70,2012-11-15 08:50:00
9:50 AM,44.6,42.8,93,30.21,3.1,East,4.6,-,N/A,,Overcast,80,2012-11-15 09:50:00
10:50 AM,44.6,42.8,93,30.21,3.1,ESE,6.9,-,N/A,,Haze,120,2012-11-15 10:50:00
11:50 AM,46,40,72,30.20,7,East,6.9,,,,Mostly Cloudy,100,2012-11-15 11:50:00
11:50 AM,46.4,39.2,76,30.18,4.3,East,6.9,-,N/A,,Haze,100,2012-11-15 11:50:00
12:50 PM,46.4,39.2,76,30.15,6.2,ESE,8.1,-,N/A,,Mostly Cloudy,110,2012-11-15 12:50:00
1:50 PM,46.4,41.0,81,30.15,6.2,ESE,5.8,-,N/A,,Overcast,110,2012-11-15 13:50:00
2:50 PM,46,40,74,30.13,6,ESE,6.9,,,,Mostly Cloudy,110,2012-11-15 14:50:00
2:50 PM,46.4,41.0,81,30.12,5.6,ESE,6.9,-,N/A,,Haze,110,2012-11-15 14:50:00
3:50 PM,44.6,39.2,81,30.12,5.0,East,6.9,-,N/A,,Mostly Cloudy,90,2012-11-15 15:50:00
4:50 PM,44.6,39.2,81,30.12,5.0,East,4.6,-,N/A,,Overcast,80,2012-11-15 16:50:00
5:50 PM,45,40,77,30.13,4,ENE,6.9,,,,Overcast,70,2012-11-15 17:50:00
5:50 PM,44.6,41.0,87,30.12,4.3,ENE,6.9,-,N/A,,Overcast,70,2012-11-15 17:50:00
6:50 PM,46.4,41.0,81,30.09,4.3,East,5.8,-,N/A,,Overcast,90,2012-11-15 18:50:00
7:50 PM,46.4,41.0,81,30.09,3.7,ENE,4.6,-,N/A,,Overcast,70,2012-11-15 19:50:00
8:50 PM,46,42,81,30.10,3,ENE,5.8,,,,Scattered Clouds,60,2012-11-15 20:50:00
8:50 PM,46.4,42.8,87,30.09,3.1,ENE,5.8,-,N/A,,Mostly Cloudy,60,2012-11-15 20:50:00
9:50 PM,46.4,42.8,87,30.09,3.7,East,4.6,-,N/A,,Overcast,80,2012-11-15 21:50:00
10:50 PM,46.4,42.8,87,30.06,3.7,ENE,3.5,-,N/A,,Overcast,70,2012-11-15 22:50:00
11:50 PM,46,43,84,30.07,3,ENE,3.5,,,,Overcast,70,2012-11-15 23:50:00
11:50 PM,46.4,42.8,87,30.06,3.1,ENE,3.5,-,N/A,,Overcast,70,2012-11-15 23:50:00